Regional Weather Roundup
Issued by NWS Upton, NY

Current Version | Previous Version | Text Only | Print | Product List | Glossary Off
Versions: 1 2 3 4 5 6 7 8 9 10 11 12 13 14 15 16 17 18 19 20 21 22 23 24 25 26 27 28 29 30 31 32 33 34 35 36 37 38 39 40 41 42 43 44 45 46 47 48 49 50
000 ASUS41 KOKX 211214 RWROKX Regional Weather Roundup National Weather Service New York NY 800 AM EDT MON OCT 21 2019 Note: "FAIR" indicates few or no clouds below 12,000 feet with no significant weather and/or obstructions to visibility. NYZ071-072-176-178-NJZ106-104-211300- New York City Metro Area CITY SKY/WX TMP DP RH WIND PRES REMARKS Central Park FAIR 52 45 77 VRB3 30.07R Bronx Lehman C N/A 50 45 81 N7 N/A LaGuardia Arpt FAIR 53 45 74 N7 30.04R Queens College N/A 52 46 82 N7 N/A Kennedy Intl NOT AVBL Breezy Point NOT AVBL Brooklyn Coll N/A 52 46 82 N8 N/A Staten Island N/A 50 46 87 N7 N/A Newark/Liberty FAIR 51 46 83 N5 30.05R Teterboro FAIR 51 45 79 N7 30.05R $$ NYZ177-179-078>081-211300- Long Island New York CITY SKY/WX TMP DP RH WIND PRES REMARKS Jones Beach N/A 52 N/A N/A N13 N/A Wantagh N/A 54 48 82 N7 N/A Hempstead N/A 52 48 87 N5 30.06S Matinecock Pt N/A 54 N/A N/A NE20 N/A Farmingdale FAIR 53 47 79 N10 30.03R MacArthur/ISP FAIR 53 49 86 N12 30.02R Stony Brook N/A 54 46 76 NE5 N/A Shirley FAIR 54 47 77 N7 30.02R Mt Sinai Harb N/A N/A N/A N/A N21 N/A Westhampton CLEAR 52 48 87 NE15 30.03R East Hampton CLOUDY 52 49 89 N10G16 30.01R Southold N/A 54 48 82 NE12 N/A Montauk N/A 56 52 86 NE15G22 30.03R $$ NYZ052-065-067-211300- Hudson Valley CITY SKY/WX TMP DP RH WIND PRES REMARKS White Plains FAIR 48 44 86 N9 30.04R Larchmont Harb N/A 50 N/A N/A N13 N/A Croton On Huds N/A 48 N/A N/A MISG N/A Somers N/A 46 43 87 N2 N/A Brewster N/A 43 43 100 N5 N/A Newburgh MOCLDY 46 46 100 NE6 30.08R FOG Montgomery CLOUDY 47 47 100 N5 30.09R Otisville N/A 43 43 100 N1 N/A Warwick N/A 46 46 100 E2 N/A Suffern N/A 48 45 87 N5 N/A Poughkeepsie CLOUDY 45 43 93 N8 30.09R FOG Albany DRZL/FOG 47 45 93 N6 30.12R VSB 1/2 $$ NJZ001-105-106-008-010-013-015-019>022-104-211300- New Jersey CITY SKY/WX TMP DP RH WIND PRES REMARKS Newark/Liberty FAIR 51 46 83 N5 30.05R Teterboro FAIR 51 45 79 N7 30.05R Caldwell FAIR 50 47 89 NE3 30.06R Somerville FAIR 44 43 96 NW3 30.04S FOG Linden FAIR 51 46 81 CALM 30.05S Perth Amboy N/A 50 N/A N/A N6 N/A Sussex CLOUDY 46 45 96 N6 30.08S FOG Andover N/A 49 47 93 NE8 30.07S Trenton FAIR 49 47 93 N6 30.04S Millville FAIR 52 48 86 N10 30.04R Atlantic City CLOUDY 53 49 86 N13 30.02R Wrightstown CLEAR 50 47 88 N12 30.03S Toms River NOT AVBL Belmar NOT AVBL $$ PAZ047>061-062-071-211300- Eastern Pennsylvania CITY SKY/WX TMP DP RH WIND PRES REMARKS Philadelphia FAIR 51 46 83 N9 30.06R Allentown NOT AVBL Scranton NOT AVBL $$ CTZ002-004>006-009-010-012-RIZ004-006-007-MAZ004-011-015-211300- Southern New England In CT CITY SKY/WX TMP DP RH WIND PRES REMARKS Bradley Intl FAIR 48 44 86 N9 30.08S Hartford FAIR 48 46 93 N8 30.08R Danbury FAIR 41 41 100 CALM 30.07S Wtrbury/Oxford FAIR 46 44 93 NE10 30.07R Norwalk Harbor N/A 48 N/A N/A N13 N/A Bridgeport FAIR 52 46 80 N13G22 30.05R Meriden FAIR 49 45 86 N7 30.06S New Haven FAIR 50 47 89 N16 30.04R Chester FAIR 50 46 87 N9 30.04R Groton CLOUDY 50 49 96 N10 30.04R Willimantic FAIR 48 46 93 N7 30.08R In RI CITY SKY/WX TMP DP RH WIND PRES REMARKS Providence CLOUDY 53 50 89 N9 30.07R Block Island CLOUDY 55 52 89 NE21G28 30.02R Westerly CLOUDY 55 52 89 NE12G18 30.04R In MA CITY SKY/WX TMP DP RH WIND PRES REMARKS Boston FAIR 54 49 83 N8 30.10 Worcester FOG 47 47 100 NE7 30.09R VSB 1/4 Westfield FAIR 44 42 93 N6 30.10R Provincetown FAIR 54 52 93 E9 N/A Nantucket LGT RAIN 54 52 93 NE20G29 30.01R FOG $$ ANZ330-335-338-340-345-350-353-355-211300- Coastal Marine Observations STATION/POSITION TIME SKY/WX TEMP WIND PRES VSBY WAVE AIR SEA DIR/SP/G HT/PER (UTC) (F) (DEG/KT/KT) (MB) (MI) (FT/S) NY Harb Entrance 1150 56 62 10/ 17/ 21 1016.5 6/11 20 S Fire Island 1150 58 62 20/ 21/ 27 1015.0 9/ 7 Great South Bay 1130 54 56 10/ 12/ 14 N/A 23 SSW Montauk P NOT AVBL 15 E Barnegat Li 1200 63 N/A 10/ 7 Hudson Canyon 1150 60 64 20/ 27/ 35 1013.3 13/ 8 Kings Point 1124 53 61 70/ 8/ 14 1017.7 Execution Rocks 1200 54 32 20/ 14/ 21 N/A Western LI Sound 1145 54 10/ 16/ 19 N/A 2/ 3 Central LI Sound NOT AVBL Robbins Reef 1124 52 360/ 13/ 17 1017.1 $$ >>>>>>>>>>>>>>>>>>>>>>>>>>>> KEY <<<<<<<<<<<<<<<<<<<<<<<<<<< > < > SKY/WX - Sky Condition/Present Weather < > TMP - Temperature in Fahrenheit < > DP - Dew Point in Fahrenheit < > RH - Relative Humidity in Percent < > WIND - Direction (from) and Speed in MPH < > PRES - Mean Sea Level Pressure (inches of Hg) < > WCI - Wind Chill Index < > VSB - Visibility in Miles < > HX - Heat Index < > TC - Temperature in Celsius < > VRB - Variable Wind Direction < > < >>>>>>>>>>>>>>>>>>>>>>>>>>>> KEY <<<<<<<<<<<<<<<<<<<<<<<<<<<

USA.gov is the U.S. government's official web portal to all federal, state and local government web resources and services.